Location: Newark
(35.6799°N, 139.7636°E)
Time: 07:06:44
(UTC+00:00)

Explorer 7 - Pass Details

Date: 15 December 2019
Orbit: 485 x 679 km, 50.3° (Epoch: 19 January)

Event Time Altitude Azimuth Distance (km) Brightness Sun altitude
Rises 07:14:40 0° 296° (WNW) 3,001 11.1 1.6°
Reaches altitude 10° 07:18:03 10° 320° (NW) 2,108 9.9 1.0°
Maximum altitude 07:20:46 15° 354° (N) 1,821 9.3 0.6°
Drops below altitude 10° 07:23:30 10° 28° (NNE) 2,118 9.3 0.1°
Enters shadow 07:26:48 - 52° (NE) 2,993 9.9 -0.5°
Sets 07:26:55 0° 52° (NE) 3,026 - -0.5°
